Time,TemperatureF,DewpointF,PressureIn,WindDirection,WindDirectionDegrees,WindSpeedMPH,WindSpeedGustMPH,Humidity,HourlyPrecipIn,Conditions,Clouds,dailyrainin,SoftwareType,DateUTC
2013-03-30 00:03:00,-999.0,-99.9,26.50,North,-999,-999.0,-999.0,-999,0.00,,,0.00,weatherlink.com 1.10,2013-03-30 04:03:00,
2013-03-30 00:18:00,-999.0,-99.9,26.49,North,-999,-999.0,-999.0,-999,0.00,,,0.00,weatherlink.com 1.10,2013-03-30 04:18:00,
2013-03-30 00:33:00,-999.0,-99.9,26.49,North,-999,-999.0,-999.0,-999,0.00,,,0.00,weatherlink.com 1.10,2013-03-30 04:33:00,
2013-03-30 00:48:00,-999.0,-99.9,26.49,North,-999,-999.0,-999.0,-999,0.00,,,0.00,weatherlink.com 1.10,2013-03-30 04:48:00,
2013-03-30 01:04:00,-999.0,-99.9,26.49,North,-999,-999.0,-999.0,-999,0.00,,,0.00,weatherlink.com 1.10,2013-03-30 05:04:00,
2013-03-30 01:19:00,-999.0,-99.9,26.48,North,-999,-999.0,-999.0,-999,0.00,,,0.00,weatherlink.com 1.10,2013-03-30 05:19:00,
2013-03-30 01:34:00,-999.0,-99.9,26.48,North,-999,-999.0,-999.0,-999,0.00,,,0.00,weatherlink.com 1.10,2013-03-30 05:34:00,
2013-03-30 01:49:00,-999.0,-99.9,26.49,North,-999,-999.0,-999.0,-999,0.00,,,0.00,weatherlink.com 1.10,2013-03-30 05:49:00,
2013-03-30 02:04:00,-999.0,-99.9,26.49,North,-999,-999.0,-999.0,-999,0.00,,,0.00,weatherlink.com 1.10,2013-03-30 06:04:00,
2013-03-30 02:19:00,-999.0,-99.9,26.49,North,-999,-999.0,-999.0,-999,0.00,,,0.00,weatherlink.com 1.10,2013-03-30 06:19:00,
2013-03-30 02:34:00,-999.0,-99.9,26.48,North,-999,-999.0,-999.0,-999,0.00,,,0.00,weatherlink.com 1.10,2013-03-30 06:34:00,
2013-03-30 02:49:00,-999.0,-99.9,26.48,North,-999,-999.0,-999.0,-999,0.00,,,0.00,weatherlink.com 1.10,2013-03-30 06:49:00,
2013-03-30 03:04:00,-999.0,-99.9,26.47,North,-999,-999.0,-999.0,-999,0.00,,,0.00,weatherlink.com 1.10,2013-03-30 07:04:00,
2013-03-30 03:19:00,-999.0,-99.9,26.47,North,-999,-999.0,-999.0,-999,0.00,,,0.00,weatherlink.com 1.10,2013-03-30 07:19:00,
2013-03-30 03:34:00,-999.0,-99.9,26.47,North,-999,-999.0,-999.0,-999,0.00,,,0.00,weatherlink.com 1.10,2013-03-30 07:34:00,
2013-03-30 03:49:00,-999.0,-99.9,26.47,North,-999,-999.0,-999.0,-999,0.00,,,0.00,weatherlink.com 1.10,2013-03-30 07:49:00,
2013-03-30 04:04:00,-999.0,-99.9,26.47,North,-999,-999.0,-999.0,-999,0.00,,,0.00,weatherlink.com 1.10,2013-03-30 08:04:00,
2013-03-30 04:19:00,-999.0,-99.9,26.47,North,-999,-999.0,-999.0,-999,0.00,,,0.00,weatherlink.com 1.10,2013-03-30 08:19:00,
2013-03-30 04:35:00,-999.0,-99.9,26.47,North,-999,-999.0,-999.0,-999,0.00,,,0.00,weatherlink.com 1.10,2013-03-30 08:35:00,
2013-03-30 04:50:00,-999.0,-99.9,26.46,North,-999,-999.0,-999.0,-999,0.00,,,0.00,weatherlink.com 1.10,2013-03-30 08:50:00,
2013-03-30 05:05:00,-999.0,-99.9,26.46,North,-999,-999.0,-999.0,-999,0.00,,,0.00,weatherlink.com 1.10,2013-03-30 09:05:00,
2013-03-30 05:20:00,-999.0,-99.9,26.47,North,-999,-999.0,-999.0,-999,0.00,,,0.00,weatherlink.com 1.10,2013-03-30 09:20:00,
2013-03-30 05:35:00,-999.0,-99.9,26.47,North,-999,-999.0,-999.0,-999,0.00,,,0.00,weatherlink.com 1.10,2013-03-30 09:35:00,
2013-03-30 05:50:00,-999.0,-99.9,26.47,North,-999,-999.0,-999.0,-999,0.00,,,0.00,weatherlink.com 1.10,2013-03-30 09:50:00,
2013-03-30 06:05:00,-999.0,-99.9,26.47,North,-999,-999.0,-999.0,-999,0.00,,,0.00,weatherlink.com 1.10,2013-03-30 10:05:00,
2013-03-30 06:20:00,-999.0,-99.9,26.47,North,-999,-999.0,-999.0,-999,0.00,,,0.00,weatherlink.com 1.10,2013-03-30 10:20:00,
2013-03-30 06:35:00,-999.0,-99.9,26.47,North,-999,-999.0,-999.0,-999,0.00,,,0.00,weatherlink.com 1.10,2013-03-30 10:35:00,
2013-03-30 06:50:00,-999.0,-99.9,26.48,North,-999,-999.0,-999.0,-999,0.00,,,0.00,weatherlink.com 1.10,2013-03-30 10:50:00,
2013-03-30 07:05:00,-999.0,-99.9,26.48,North,-999,-999.0,-999.0,-999,0.00,,,0.00,weatherlink.com 1.10,2013-03-30 11:05:00,
2013-03-30 07:20:00,-999.0,-99.9,26.47,North,-999,-999.0,-999.0,-999,0.00,,,0.00,weatherlink.com 1.10,2013-03-30 11:20:00,
2013-03-30 07:35:00,-999.0,-99.9,26.48,North,-999,-999.0,-999.0,-999,0.00,,,0.00,weatherlink.com 1.10,2013-03-30 11:35:00,
2013-03-30 07:51:00,32.1,30.0,26.48,WNW,291,0.0,0.0,91,0.00,,,0.00,weatherlink.com 1.10,2013-03-30 11:51:00,
2013-03-30 08:06:00,31.9,30.0,26.49,WNW,292,0.0,3.0,91,0.00,,,0.00,weatherlink.com 1.10,2013-03-30 12:06:00,
2013-03-30 08:21:00,31.8,30.0,26.49,WNW,292,0.0,0.0,91,0.00,,,0.00,weatherlink.com 1.10,2013-03-30 12:21:00,
2013-03-30 08:36:00,32.7,31.0,26.49,WNW,292,0.0,0.0,92,0.00,,,0.00,weatherlink.com 1.10,2013-03-30 12:36:00,
2013-03-30 08:51:00,33.4,31.0,26.50,WNW,292,0.0,4.0,90,0.00,,,0.00,weatherlink.com 1.10,2013-03-30 12:51:00,
2013-03-30 09:06:00,34.9,32.0,26.50,WNW,292,0.0,0.0,90,0.00,,,0.00,weatherlink.com 1.10,2013-03-30 13:06:00,
2013-03-30 09:36:00,36.6,32.0,26.49,WNW,292,1.0,3.0,83,0.00,,,0.00,weatherlink.com 1.10,2013-03-30 13:36:00,
2013-03-30 09:51:00,38.3,28.0,26.49,SSE,151,4.0,6.0,66,0.00,,,0.00,weatherlink.com 1.10,2013-03-30 13:51:00,
2013-03-30 10:06:00,40.1,24.0,26.49,SE,131,2.0,8.0,54,0.00,,,0.00,weatherlink.com 1.10,2013-03-30 14:06:00,
2013-03-30 10:21:00,41.1,24.0,26.49,NE,34,0.0,7.0,51,0.00,,,0.00,weatherlink.com 1.10,2013-03-30 14:21:00,
2013-03-30 10:36:00,42.5,25.0,26.49,East,89,5.0,6.0,50,0.00,,,0.00,weatherlink.com 1.10,2013-03-30 14:36:00,
2013-03-30 10:51:00,42.6,25.0,26.48,NNE,33,3.0,8.0,50,0.00,,,0.00,weatherlink.com 1.10,2013-03-30 14:51:00,
2013-03-30 11:06:00,42.9,26.0,26.48,North,5,3.0,10.0,51,0.00,,,0.00,weatherlink.com 1.10,2013-03-30 15:06:00,
2013-03-30 11:21:00,44.2,26.0,26.48,NE,52,1.0,9.0,49,0.00,,,0.00,weatherlink.com 1.10,2013-03-30 15:21:00,
2013-03-30 11:36:00,44.5,29.0,26.47,ENE,76,0.0,5.0,54,0.00,,,0.00,weatherlink.com 1.10,2013-03-30 15:36:00,
2013-03-30 11:51:00,45.1,28.0,26.48,ENE,64,3.0,7.0,51,0.00,,,0.00,weatherlink.com 1.10,2013-03-30 15:51:00,
2013-03-30 12:06:00,44.8,29.0,26.47,SE,146,5.0,5.0,55,0.00,,,0.00,weatherlink.com 1.10,2013-03-30 16:06:00,
2013-03-30 12:36:00,46.5,30.0,26.47,SSW,211,8.0,10.0,53,0.00,,,0.00,weatherlink.com 1.10,2013-03-30 16:36:00,
2013-03-30 12:51:00,47.0,32.0,26.47,South,179,6.0,14.0,56,0.00,,,0.00,weatherlink.com 1.10,2013-03-30 16:51:00,
2013-03-30 13:06:00,47.9,30.0,26.46,South,181,5.0,7.0,50,0.00,,,0.00,weatherlink.com 1.10,2013-03-30 17:06:00,
2013-03-30 13:21:00,48.0,30.0,26.45,SSW,212,0.0,7.0,50,0.00,,,0.00,weatherlink.com 1.10,2013-03-30 17:21:00,
2013-03-30 13:36:00,48.9,31.0,26.45,South,179,4.0,8.0,51,0.00,,,0.00,weatherlink.com 1.10,2013-03-30 17:36:00,
2013-03-30 13:51:00,48.9,31.0,26.44,South,175,5.0,10.0,50,0.00,,,0.00,weatherlink.com 1.10,2013-03-30 17:51:00,
2013-03-30 14:06:00,48.8,29.0,26.44,SSE,166,0.0,5.0,47,0.00,,,0.00,weatherlink.com 1.10,2013-03-30 18:06:00,
2013-03-30 14:21:00,49.9,31.0,26.44,South,190,4.0,10.0,48,0.00,,,0.00,weatherlink.com 1.10,2013-03-30 18:21:00,
2013-03-30 14:36:00,50.2,31.0,26.44,WSW,254,0.0,7.0,48,0.00,,,0.00,weatherlink.com 1.10,2013-03-30 18:36:00,
2013-03-30 14:51:00,51.4,32.0,26.43,South,186,8.0,10.0,47,0.00,,,0.00,weatherlink.com 1.10,2013-03-30 18:51:00,
2013-03-30 15:07:00,50.4,31.0,26.43,South,188,4.0,9.0,47,0.00,,,0.00,weatherlink.com 1.10,2013-03-30 19:07:00,
2013-03-30 15:22:00,52.2,30.0,26.43,SSW,211,7.0,11.0,43,0.00,,,0.00,weatherlink.com 1.10,2013-03-30 19:22:00,
2013-03-30 15:37:00,50.2,31.0,26.42,North,355,0.0,7.0,48,0.00,,,0.00,weatherlink.com 1.10,2013-03-30 19:37:00,
2013-03-30 15:52:00,51.6,31.0,26.42,SSW,192,5.0,9.0,46,0.00,,,0.00,weatherlink.com 1.10,2013-03-30 19:52:00,
2013-03-30 16:07:00,51.9,32.0,26.41,South,189,4.0,6.0,47,0.00,,,0.00,weatherlink.com 1.10,2013-03-30 20:07:00,
2013-03-30 16:22:00,52.2,31.0,26.41,SSW,194,3.0,9.0,45,0.00,,,0.00,weatherlink.com 1.10,2013-03-30 20:22:00,
2013-03-30 16:37:00,52.2,31.0,26.41,SW,215,6.0,13.0,45,0.00,,,0.00,weatherlink.com 1.10,2013-03-30 20:37:00,
2013-03-30 16:52:00,52.9,33.0,26.40,SSW,203,4.0,7.0,47,0.00,,,0.00,weatherlink.com 1.10,2013-03-30 20:52:00,
2013-03-30 17:07:00,52.5,31.0,26.40,WSW,239,3.0,7.0,44,0.00,,,0.00,weatherlink.com 1.10,2013-03-30 21:07:00,
2013-03-30 17:22:00,52.2,32.0,26.40,SSW,207,4.0,10.0,46,0.00,,,0.00,weatherlink.com 1.10,2013-03-30 21:22:00,
2013-03-30 17:37:00,52.2,32.0,26.40,SSW,211,4.0,8.0,46,0.00,,,0.00,weatherlink.com 1.10,2013-03-30 21:37:00,
2013-03-30 17:52:00,51.4,32.0,26.40,SW,234,6.0,6.0,47,0.00,,,0.00,weatherlink.com 1.10,2013-03-30 21:52:00,
2013-03-30 18:07:00,51.7,33.0,26.40,SSW,192,3.0,7.0,50,0.00,,,0.00,weatherlink.com 1.10,2013-03-30 22:07:00,
2013-03-30 18:22:00,51.9,33.0,26.40,SSW,192,0.0,4.0,48,0.00,,,0.00,weatherlink.com 1.10,2013-03-30 22:22:00,
2013-03-30 18:37:00,51.4,33.0,26.40,South,190,1.0,7.0,50,0.00,,,0.00,weatherlink.com 1.10,2013-03-30 22:37:00,
2013-03-30 18:52:00,51.0,33.0,26.40,South,189,1.0,5.0,50,0.00,,,0.00,weatherlink.com 1.10,2013-03-30 22:52:00,
2013-03-30 19:07:00,50.4,34.0,26.40,South,169,2.0,10.0,54,0.00,,,0.00,weatherlink.com 1.10,2013-03-30 23:07:00,
2013-03-30 19:22:00,49.6,34.0,26.40,SSE,168,0.0,4.0,56,0.00,,,0.00,weatherlink.com 1.10,2013-03-30 23:22:00,
2013-03-30 19:37:00,-999.0,-99.9,26.40,North,-999,-999.0,-999.0,-999,0.00,,,0.00,weatherlink.com 1.10,2013-03-30 23:37:00,
2013-03-30 19:52:00,-999.0,-99.9,26.40,North,-999,-999.0,-999.0,-999,0.00,,,0.00,weatherlink.com 1.10,2013-03-30 23:52:00,
2013-03-30 20:07:00,-999.0,-99.9,26.40,North,-999,-999.0,-999.0,-999,0.00,,,0.00,weatherlink.com 1.10,2013-03-31 00:07:00,
2013-03-30 20:22:00,-999.0,-99.9,26.40,North,-999,-999.0,-999.0,-999,0.00,,,0.00,weatherlink.com 1.10,2013-03-31 00:22:00,
2013-03-30 20:37:00,-999.0,-99.9,26.40,North,-999,-999.0,-999.0,-999,0.00,,,0.00,weatherlink.com 1.10,2013-03-31 00:37:00,
2013-03-30 20:52:00,-999.0,-99.9,26.40,North,-999,-999.0,-999.0,-999,0.00,,,0.00,weatherlink.com 1.10,2013-03-31 00:52:00,
2013-03-30 21:07:00,-999.0,-99.9,26.40,North,-999,-999.0,-999.0,-999,0.00,,,0.00,weatherlink.com 1.10,2013-03-31 01:07:00,
2013-03-30 21:22:00,-999.0,-99.9,26.40,North,-999,-999.0,-999.0,-999,0.00,,,0.00,weatherlink.com 1.10,2013-03-31 01:22:00,
2013-03-30 21:37:00,-999.0,-99.9,26.40,North,-999,-999.0,-999.0,-999,0.00,,,0.00,weatherlink.com 1.10,2013-03-31 01:37:00,
2013-03-30 21:52:00,-999.0,-99.9,26.40,North,-999,-999.0,-999.0,-999,0.00,,,0.00,weatherlink.com 1.10,2013-03-31 01:52:00,
2013-03-30 22:08:00,-999.0,-99.9,26.40,North,-999,-999.0,-999.0,-999,0.00,,,0.00,weatherlink.com 1.10,2013-03-31 02:08:00,
2013-03-30 22:23:00,-999.0,-99.9,26.40,North,-999,-999.0,-999.0,-999,0.00,,,0.00,weatherlink.com 1.10,2013-03-31 02:23:00,
2013-03-30 22:38:00,-999.0,-99.9,26.40,North,-999,-999.0,-999.0,-999,0.00,,,0.00,weatherlink.com 1.10,2013-03-31 02:38:00,
2013-03-30 22:53:00,-999.0,-99.9,26.40,North,-999,-999.0,-999.0,-999,0.00,,,0.00,weatherlink.com 1.10,2013-03-31 02:53:00,
2013-03-30 23:08:00,-999.0,-99.9,26.40,North,-999,-999.0,-999.0,-999,0.00,,,0.00,weatherlink.com 1.10,2013-03-31 03:08:00,
2013-03-30 23:23:00,-999.0,-99.9,26.39,North,-999,-999.0,-999.0,-999,0.00,,,0.00,weatherlink.com 1.10,2013-03-31 03:23:00,
2013-03-30 23:38:00,-999.0,-99.9,26.39,North,-999,-999.0,-999.0,-999,0.00,,,0.00,weatherlink.com 1.10,2013-03-31 03:38:00,
2013-03-30 23:53:00,-999.0,-99.9,26.39,North,-999,-999.0,-999.0,-999,0.00,,,0.00,weatherlink.com 1.10,2013-03-31 03:53:00,